Location: ????
(32.1228°N, 34.8377°E)
Time: 03:52:55
(UTC+00:00)

Yuri Rocket - Pass Details

Date: 21 September 2020
Orbit: 567 x 1914 km, 28.2° (Epoch: 23 October)

Event Time Altitude Azimuth Distance (km) Brightness Sun altitude
Exits shadow 02:27:30 14° 222° (SW) 1,771 4.9 -13.7°
Maximum altitude 02:31:00 35° 160° (SSE) 1,138 4.5 -12.9°
Drops below altitude 10° 02:36:13 10° 96° (E) 2,518 7.6 -11.8°
Sets 02:39:24 0° 88° (E) 3,688 9.2 -11.2°
